Location: Geography Hall
(41.1195°N, 80.5706°W)
Time: 23:19:55
(UTC+00:00)

USA 306 - Pass Details

Date: 29 October 2020
Orbit: 569 x 576 km, 54.0° (Epoch: 30 November)

Event Time Altitude Azimuth Distance (km) Brightness Sun altitude
Rises 22:42:05 0° 313° (NW) 2,792 6.9 -4.7°
Reaches altitude 10° 22:44:44 10° 328° (NNW) 1,890 5.8 -5.1°
Maximum altitude 22:48:12 23° 22° (NNE) 1,248 4.3 -5.8°
Drops below altitude 10° 22:51:38 10° 75° (ENE) 1,882 4.8 -6.4°
Enters shadow 22:52:08 - 79° (E) 2,039 5.0 -6.5°
